Location: Kendal
(54.3260°N, 2.7460°W)
Time: 00:10:34
(UTC+01:00)

N. Korean satellite - Pass Details

Date: 21 January 2022
Orbit: 438 x 478 km, 97.3° (Epoch: 21 May)

Event Time Altitude Azimuth Distance (km) Brightness Sun altitude
Rises 17:15:23 0° 197° (SSW) 2,487 10.8 -6.7°
Reaches altitude 10° 17:17:41 10° 212° (SSW) 1,631 10.2 -7.0°
Maximum altitude 17:20:34 24° 267° (W) 1,042 9.2 -7.4°
Drops below altitude 10° 17:23:32 10° 323° (NW) 1,679 9.5 -7.8°
Sets 17:25:56 0° 337° (NNW) 2,581 10.3 -8.1°
